Regional Weather Roundup
Issued by NWS

Home | Current Version | Previous Version | Graphics & Text | Print | Product List | Glossary On
Versions: 1 2 3 4 5 6 7 8 9 10 11 12 13 14 15 16 17 18 19 20 21 22 23 24 25 26 27 28
000
ASUS45 KSLC 212010
RWRUT

UTAH REGIONAL WEATHER ROUNDUP
NATIONAL WEATHER SERVICE SALT LAKE CITY UT
200 PM MDT TUE OCT 21 2014

UTZ001>011-023>025-212100-

NORTHERN UTAH

CITY           SKY/WX    TMP DP  RH WIND       PRES   REMARKS
BRIGHAM CITY   CLOUDY    58  32  36 CALM      30.02F
HILL AFB       PTSUNNY   57  37  47 N14G21    30.03R
LOGAN          CLOUDY    56  40  55 NW6       30.02F
OGDEN          CLOUDY    61  36  39 NW15      30.01S
PROVO AIRPORT  NOT AVBL
SALT LAKE CITY PTSUNNY   61  38  42 NW20G25   30.00F
VERNAL         PTSUNNY   65  41  41 SW8       29.95F
WENDOVER       SUNNY     63  19  19 W18G24    30.00F
HEBER CITY     CLOUDY    61  37  41 W9        29.96R
WEST JORDAN    SUNNY     61  43  51 NW21G26   30.02S

$$

UTZ012>022-026-027-212100-

SOUTHERN/CENTRAL UTAH

CITY           SKY/WX    TMP DP  RH WIND       PRES   REMARKS
BLANDING       MOSUNNY   66  42  41 SE6       30.15F
BRYCE CANYON   PTSUNNY   59  35  40 SW10G16   30.11F
CEDAR CITY     SUNNY     69  38  32 SW15G25   30.00F
DELTA          MOSUNNY   73  35  25 SW20G25   29.94F
HANKSVILLE       N/A     73  37  27 S9G17     29.96F
MILFORD        SUNNY     71  39  31 SW17G25   29.96F
MOAB/CYNLANDS  SUNNY     74  40  29 S9        29.93F
PRICE          SUNNY     64  38  38 S6        30.00F
ST GEORGE      CLOUDY    81  45  28 NW8       29.90F
KANAB            N/A     72  39  30 S12       30.03F

$$

REGIONAL REPORTS     COLORADO/ARIZONA

CITY           SKY/WX    TMP DP  RH WIND       PRES   REMARKS
CRAIG, CO      CLOUDY    66  40  38 SW15      30.01F
GRAND JUNCTION CLOUDY    70  43  37 S8        29.97F
RIFLE          CLOUDY    62  44  51 CALM      30.03F
MONTROSE       CLOUDY    64  40  41 CALM      30.07F
CORTEZ         PTSUNNY   63  43  48 W5        30.10F
PAGE, AZ       SUNNY     74  40  29 N8        29.98
GRAND CANYON   SUNNY     66  33  29 SW8G20    30.12F
KINGMAN        SUNNY     79  43  27 S6G17     29.95F
FLAGSTAFF      SUNNY     64  36  35 SW10      30.14F

$$

REGIONAL REPORTS    NEVADA/IDAHO/WYOMING

CITY           SKY/WX    TMP DP  RH WIND       PRES   REMARKS
LAS VEGAS, NV  MOSUNNY   84  26  12 SW21G26   29.81F
ELY            SUNNY     62  11  13 W13       30.04F
ELKO           SUNNY     55  21  26 W17       30.08F
POCATELLO, ID  PTSUNNY   51  36  56 W17       30.05S
BURLEY         LGT RAIN  52  37  56 W21G36    30.04R
EVANSTON, WY   PTSUNNY   55  36  48 W23G30    30.03R
ROCK SPRINGS   PTSUNNY   62  34  35 S16       29.96F
KEMMERER       PTSUNNY   55  37  50 W20G31    30.02R

$$



USA.gov is the U.S. government's official web portal to all federal, state and local government web resources and services.